OSCAR 7 (AO-7)

Last updated on Thu Oct 30 2025 00:03:10 GMT+0000 (Coordinated Universal Time)

1 07530U 74089B 25302.54021204 -.00000024 00000+0 14089-3 0 9994 2 07530 101.9983 308.3390 0012040 210.4824 270.3576 12.53692903331616
UTC large
Height (km)
Speed (km/s)
/
Latitude / Longitude
Inclination (degrees)
Orbital Period (minutes)
Azimuth
Elevation
Range (km)
Doppler Factor

Next 0 passes for location: London (51.5072 / 0.1276)

Sorry there are no passes over London.